Content
SEND FEEDBACK

Daily
Averages
Monthly
Summary
Switzerland

GENEVA, SWITZERLAND


Home > Europe > Switzerland
Elevation: 1364 feet     Latitude: 46 15N     Longitude: 006 08E

WEATHER
 
SELECT A DAY
Number of Records: 306,145;   Date Range: 7/1/96 - 9/3/14
 
SHARE

PRINT THIS DATA

[ ← Previous Day ]
WEATHER ALMANAC - OCTOBER 25, 2013
[ Next Day → ]
[ °C ]   °F
Weather ElementAverageHighLow
Temperature54.7 °F64.4 °F (3:20 pm)48.2 °F (6:20 am)
Dewpoint51.6 °F55.4 °F (3:20 pm)47 °F (7:00 am)
Humidity89 %100 % (12:20 am)61 % (3:00 pm)
Barometer30.07 in30.12 in (10:00 am)30.02 in (4:00 pm)
Wind Speed1.8 mph4.6 mph (12:50 pm)
Weather ElementAverage
Visibility5.6 mi
Wind DirectionNE (49.7 °)

Weather ElementTotal
Precipitation---
Heating Degree Days8.7 (Base 65)
Growing Degree Days6.3 (Base 50)
Averaged from 66 records on October 25, 2013
WEATHER CONDITIONS BREAKOUT
WIND DIRECTION BREAKOUT
WEATHER BY HOUR - OCTOBER 25, 2013
[ °C ]   °F
Local TimeTemperatureDewpointHumidityBarometerVisibilityWind DirectionWind SpeedGust SpeedPrecipitationEventsConditions
12:20 AM50.0 °F50.0 °F100 %30.06 in6.2 miVariable2.3 mphMostly Cloudy
12:50 AM50.0 °F50.0 °F100 %30.06 in6.2 miCalmMostly Cloudy
1:00 AM51.0 °F49.0 °F91 %30.09 inNW (310°)2.3 mph
1:20 AM50.0 °F50.0 °F100 %30.06 in6.2 miCalmMostly Cloudy
1:50 AM51.8 °F51.8 °F100 %30.06 in6.2 miCalmMostly Cloudy
2:00 AM52.0 °F50.0 °F89 %30.09 in7.0 miNNW (330°)1.2 mphMist
2:20 AM51.8 °F51.8 °F100 %30.06 in6.2 miCalmMostly Cloudy
2:50 AM51.8 °F51.8 °F100 %30.06 in6.2 miCalmMostly Cloudy
3:00 AM51.0 °F50.0 °F94 %30.09 inNorth (350°)1.2 mph
3:50 AM51.8 °F51.8 °F100 %30.06 in6.2 miVariable2.3 mphMostly Cloudy
4:00 AM52.0 °F50.0 °F91 %30.09 inNorth (10°)2.3 mph
4:20 AM50.0 °F50.0 °F100 %30.06 in6.2 miVariable1.2 mphScattered Clouds
4:50 AM50.0 °F50.0 °F100 %30.06 in6.2 miVariable2.3 mphMostly Cloudy
5:20 AM50.0 °F50.0 °F100 %30.06 inVariable2.3 mphClear
5:50 AM50.0 °F50.0 °F100 %30.06 in5.6 miVariable1.2 mphFogShallow Fog
6:00 AM50.0 °F48.0 °F92 %30.09 inNorth1.2 mph
6:20 AM48.2 °F48.2 °F100 %30.06 in3.7 miCalmFogShallow Fog
6:50 AM48.2 °F48.2 °F100 %30.06 in3.1 miCalmFogScattered Clouds
7:00 AM49.0 °F47.0 °F92 %30.10 inNW (320°)2.3 mph
7:20 AM48.2 °F48.2 °F100 %30.06 in3.1 miCalmFogScattered Clouds
7:50 AM48.2 °F48.2 °F100 %30.06 in3.7 miWSW (250°)1.2 mphFogFog
8:00 AM50.0 °F48.0 °F92 %30.09 in3.0 miWest (270°)2.3 mphFogPatches of Fog
8:20 AM50.0 °F50.0 °F100 %30.09 in3.7 miVariable1.2 mphMostly Cloudy
8:50 AM50.0 °F50.0 °F100 %30.09 in3.7 miCalmMostly Cloudy
9:00 AM52.0 °F50.0 °F90 %30.11 inNorth (10°)2.3 mph
9:20 AM51.8 °F51.8 °F100 %30.09 in3.7 miCalmMostly Cloudy
9:50 AM51.8 °F51.8 °F100 %30.09 in3.7 miVariable2.3 mphMostly Cloudy
10:00 AM53.0 °F51.0 °F92 %30.12 inEast (80°)3.5 mph
10:20 AM53.6 °F53.6 °F100 %30.12 in3.7 miVariable1.2 mphMostly Cloudy
10:50 AM55.4 °F53.6 °F94 %30.09 in3.7 miVariable1.2 mphMostly Cloudy
11:20 AM57.2 °F53.6 °F88 %30.09 in5.0 miVariable1.2 mphMostly Cloudy
11:50 AM59.0 °F53.6 °F82 %30.09 in6.2 miVariable1.2 mphMostly Cloudy
12:00 PM58.0 °F51.0 °F71 %30.10 inNNE (30°)2.3 mph
12:20 PM59.0 °F51.8 °F77 %30.09 in6.2 miVariable2.3 mphMostly Cloudy
12:50 PM59.0 °F51.8 °F77 %30.09 in6.2 miENE (70°)4.6 mphMostly Cloudy
1:00 PM59.0 °F52.0 °F70 %30.09 inEast (80°)4.6 mph
1:20 PM60.8 °F51.8 °F72 %30.09 in6.2 miVariable2.3 mphMostly Cloudy
1:50 PM62.6 °F53.6 °F72 %30.06 in6.2 miVariable1.2 mphMostly Cloudy
2:00 PM61.0 °F53.0 °F67 %30.06 in10.0 miENE (70°)3.5 mphScattered Clouds
2:20 PM62.6 °F51.8 °F68 %30.06 inENE (60°)3.5 mphClear
2:50 PM62.6 °F53.6 °F72 %30.06 inEast (90°)4.6 mphClear
3:00 PM61.0 °F51.0 °F61 %30.04 inENE (70°)3.5 mph
3:20 PM64.4 °F55.4 °F73 %30.04 inVariable2.3 mphClear
3:50 PM64.4 °F55.4 °F73 %30.04 inVariable2.3 mphClear
4:00 PM62.0 °F52.0 °F62 %30.02 inEast (90°)3.5 mph
4:20 PM62.6 °F55.4 °F77 %30.04 inEast (100°)3.5 mphClear
4:50 PM60.8 °F53.6 °F77 %30.04 inVariable3.5 mphClear
5:20 PM60.8 °F53.6 °F77 %30.04 inVariable3.5 mphClear
5:50 PM60.8 °F53.6 °F77 %30.04 inVariable1.2 mphClear
6:00 PM59.0 °F53.0 °F73 %30.02 inNorth1.2 mph
6:20 PM59.0 °F55.4 °F88 %30.04 inVariable1.2 mphClear
6:50 PM57.2 °F53.6 °F88 %30.04 inVariable1.2 mphClear
7:00 PM57.0 °F52.0 °F79 %30.04 inNNE (20°)1.2 mph
7:20 PM55.4 °F53.6 °F94 %30.04 inVariable1.2 mphClear
7:50 PM53.6 °F53.6 °F100 %30.06 inVariable2.3 mphClear
8:00 PM56.0 °F53.0 °F85 %30.06 in16.0 miNNW (340°)3.5 mphScattered Clouds
8:20 PM55.4 °F53.6 °F94 %30.06 inVariable2.3 mphClear
8:50 PM53.6 °F53.6 °F100 %30.06 inCalmClear
9:00 PM56.0 °F52.0 °F83 %30.06 inNNW (330°)2.3 mph
9:20 PM53.6 °F53.6 °F100 %30.06 inCalmClear
9:50 PM53.6 °F51.8 °F94 %30.06 inVariable1.2 mphClear
10:00 PM53.0 °F51.0 °F89 %30.08 inNorth2.3 mph
10:20 PM51.8 °F51.8 °F100 %30.06 inVariable1.2 mphClear
10:50 PM51.8 °F51.8 °F100 %30.09 inVariable1.2 mphClear
11:20 PM51.8 °F51.8 °F100 %30.09 inCalmClear
11:50 PM51.8 °F51.8 °F100 %30.09 inVariable2.3 mphClear
Hourly data recorded from LSGG, located miles away from Geneva, Switzerland







STORIES FROM OUR PARTNERS